(174966) = 2004 DN17

Discovered at Kitt Peak on 2004-02-18 by Spacewatch.

Orbit

Orbit type: Main Belt

Note: WebGL enabled browser required.

epoch2024-03-31.0
epoch JD2460400.5
perihelion date2022-03-12.89897
perihelion JD2459651.39897
argument of perihelion (°)329.55833
ascending node (°)297.76844
inclination (°)12.55683
eccentricity0.0936078
perihelion distance (AU)2.3597345
Tisserand w.r.t. Jupiter3.4
ΔV w.r.t. Earth (km/sec)10.4
semimajor axis (AU)2.6034363
mean anomaly (°)175.76152
mean daily motion (°/day)0.23462990
aphelion distance (AU)2.847
period (years)4.2
P-vector [x]-0.03591643
P-vector [y]-0.86748738
P-vector [z]-0.49616091
Q-vector [x]0.98066484
Q-vector [y]-0.12616419
Q-vector [z]0.14959635
absolute magnitude15.89
phase slope0.15
uncertainty0
referenceMPEC 2024-C107
observations used547
oppositions17
arc length (days)8261
first opposition used2001
last opposition used2024
residual rms (arc-secs)0.70
perturbers coarse indicatorM-v
perturbers precise indicator003Ek
first observation date used2001-06-28.0
last observation date used2024-02-09.0
computer nameMPCLINUX
JD of orbit computation2456937.502580
perihelion JD uncertainty (days)2.2437E-04
argument of perihelion uncertainty (°)5.4160E-05
ascending node uncertainty (°)2.4837E-05
inclination uncertainty (°)8.9798E-06
eccentricity uncertainty 6.8014E-08
perihelion distance uncertainty (AU)1.7183E-07
Minimum Orbit Intersection Distances (in AU)
for orbit epoch: 2460200.5, reference: E2024-CA7
Mercury1.89854
Venus1.64006
Earth1.35445
Mars0.91384
Jupiter2.30854
Saturn6.2306
Uranus15.7869
Neptune27.1511

Observations

565 total observations over interval: 2001 06 28.38438 – 2024 02 09.263455
These data are available for download (format description).

Date (UT) J2000 RA J2000 Dec Magn Location Ref
2001 06 28.38438 21 01 39.32 -16 52 02.1 19.1   644 – Palomar Mountain/NEAT MPS 137053
2001 06 28.39518 21 01 38.93 -16 51 59.9 19.0   644 – Palomar Mountain/NEAT MPS 137053
2001 06 28.40573 21 01 38.58 -16 51 57.6 19.1   644 – Palomar Mountain/NEAT MPS 137053
2001 08 16.21349 20 17 01.24 -14 42 09.2 18.8   704 – Lincoln Laboratory ETS, New Mexico MPS 136535
2001 08 16.22616 20 17 00.61 -14 42 07.1 19.1   704 – Lincoln Laboratory ETS, New Mexico MPS 136535
2001 08 16.23866 20 16 59.92 -14 42 05.6 19.1   704 – Lincoln Laboratory ETS, New Mexico MPS 136535
2001 08 16.25118 20 16 59.33 -14 42 03.2 19.3   704 – Lincoln Laboratory ETS, New Mexico MPS 136535
2001 08 24.29370 20 11 04.56 -14 25 02.2 21.0   608 – Haleakala-AMOS MPS 136535
2001 08 24.30457 20 11 04.12 -14 25 01.0 20.1   608 – Haleakala-AMOS MPS 136535
2001 08 24.31516 20 11 03.64 -14 24 59.0 20.3   608 – Haleakala-AMOS MPS 136535
2002 12 12.23028 03 11 11.18 +33 41 53.8 20.8   644 – Palomar Mountain/NEAT MPS 137053
2002 12 12.25111 03 11 10.22 +33 41 43.5 20.3   644 – Palomar Mountain/NEAT MPS 137053
2002 12 12.27246 03 11 09.32 +33 41 33.4 20.5   644 – Palomar Mountain/NEAT MPS 137053
2004 02 13.29610 09 57 37.67 +01 47 29.7 20.1   644 – Palomar Mountain/NEAT MPS 100251
2004 02 13.31774 09 57 36.41 +01 47 30.3 19.8   644 – Palomar Mountain/NEAT MPS 100251
2004 02 13.38134 09 57 32.50 +01 47 32.9 20.3   644 – Palomar Mountain/NEAT MPS 100251
2004 02 18.33917 09 52 32.47 +01 52 14.0 19.7 V 691 – Steward Observatory, Kitt Peak-Spacewatch MPS 100251
2004 02 18.36995 09 52 30.54 +01 52 16.1 20.0 V 691 – Steward Observatory, Kitt Peak-Spacewatch MPS 100251
2004 02 18.39730 09 52 28.83 +01 52 17.9 19.7 V 691 – Steward Observatory, Kitt Peak-Spacewatch MPS 100251
2004 02 19.30008 09 51 34.25 +01 53 25.8 19.5   704 – Lincoln Laboratory ETS, New Mexico MPS 100251
2004 02 19.31368 09 51 33.36 +01 53 26.6 19.5   704 – Lincoln Laboratory ETS, New Mexico MPS 100251
2004 02 19.32948 09 51 32.37 +01 53 28.5 19.9   704 – Lincoln Laboratory ETS, New Mexico MPS 100251
2004 02 19.34336 09 51 31.50 +01 53 28.2 19.9   704 – Lincoln Laboratory ETS, New Mexico MPS 100251
2004 02 19.35586 09 51 30.67 +01 53 30.0 19.6   704 – Lincoln Laboratory ETS, New Mexico MPS 100251
2004 02 29.22943 09 41 48.32 +02 10 22.4 20.5 R 683 – Goodricke-Pigott Observatory, Tucson MPS 100739
2004 02 29.24285 09 41 47.60 +02 10 23.9 20.2 R 683 – Goodricke-Pigott Observatory, Tucson MPS 100739
2004 02 29.25624 09 41 46.65 +02 10 25.5 21.1 R 683 – Goodricke-Pigott Observatory, Tucson MPS 100739
2005 05 20.44233 19 12 29.17 -32 23 45.9 19.0   644 – Palomar Mountain/NEAT MPS 178454
2005 05 20.45290 19 12 29.06 -32 23 44.8 18.7   644 – Palomar Mountain/NEAT MPS 178454
2005 05 20.46439 19 12 28.92 -32 23 44.3 18.8   644 – Palomar Mountain/NEAT MPS 178454
2006 10 11.41185 02 22 48.80 +34 03 17.1 20.7 R 644 – Palomar Mountain/NEAT MPS 182935
2006 10 11.43393 02 22 47.58 +34 03 15.2 19.9 R 644 – Palomar Mountain/NEAT MPS 182935
2006 10 11.45850 02 22 46.20 +34 03 14.1 19.9 R 644 – Palomar Mountain/NEAT MPS 182935
2006 10 23.31051 02 11 20.50 +33 34 17.6 20.3 V 703 – Catalina Sky Survey MPS 184055
2006 10 23.31806 02 11 19.93 +33 34 16.1 19.7 V 703 – Catalina Sky Survey MPS 184055
2006 10 23.32564 02 11 19.50 +33 34 14.4 19.6 V 703 – Catalina Sky Survey MPS 184055
2006 10 23.33319 02 11 19.10 +33 34 12.6 19.9 V 703 – Catalina Sky Survey MPS 184055
2006 10 29.35319 02 05 08.59 +33 06 12.5 19.3 V 703 – Catalina Sky Survey MPS 185437
2006 10 29.35964 02 05 08.12 +33 06 09.3 19.5 V 703 – Catalina Sky Survey MPS 185437
2006 10 29.36613 02 05 07.87 +33 06 07.9 20.1 V 703 – Catalina Sky Survey MPS 185437
2006 10 29.37257 02 05 07.36 +33 06 05.1 19.6 V 703 – Catalina Sky Survey MPS 185437
2006 11 21.16066 01 45 00.50 +30 22 58.6 19.7 V 703 – Catalina Sky Survey MPS 188655
2006 11 21.16719 01 45 00.18 +30 22 55.2 20.4 V 703 – Catalina Sky Survey MPS 188655
2006 11 21.17376 01 44 59.92 +30 22 52.0 19.6 V 703 – Catalina Sky Survey MPS 188655
2006 11 21.18030 01 44 59.74 +30 22 49.0 20.8 V 703 – Catalina Sky Survey MPS 188655
2007 11 09.50630 09 08 51.36 +17 30 42.1 20.0 V G96 – Mt. Lemmon Survey MPS 224844
2007 11 09.51132 09 08 51.54 +17 30 40.2 20.6 V G96 – Mt. Lemmon Survey MPS 224844
2007 11 09.51641 09 08 51.72 +17 30 38.0 20.7 V G96 – Mt. Lemmon Survey MPS 224844
2007 11 09.52139 09 08 51.93 +17 30 36.7 20.8 V G96 – Mt. Lemmon Survey MPS 224844
2007 12 30.46452 09 13 31.75 +14 09 53.9 20.2 V 691 – Steward Observatory, Kitt Peak-Spacewatch MPS 232610
2007 12 30.48217 09 13 31.13 +14 09 51.7 19.9 V 691 – Steward Observatory, Kitt Peak-Spacewatch MPS 232610
2007 12 30.49981 09 13 30.46 +14 09 49.2 19.8 V 691 – Steward Observatory, Kitt Peak-Spacewatch MPS 232610
2008 01 07.64880 09 08 01.71 +13 57 01.5 20.0 C D35 – Lulin Observatory MPS 233384
2008 01 07.65738 09 08 01.32 +13 57 00.4 19.6 C D35 – Lulin Observatory MPS 233384
2008 01 07.66602 09 08 00.93 +13 56 59.9 20.1 C D35 – Lulin Observatory MPS 233384
2008 01 10.37111 09 05 50.85 +13 53 52.8 20.0 V 691 – Steward Observatory, Kitt Peak-Spacewatch MPS 233384
2008 01 10.39217 09 05 49.73 +13 53 52.0 19.8 V 691 – Steward Observatory, Kitt Peak-Spacewatch MPS 233384
2008 01 10.40981 09 05 48.85 +13 53 50.2 19.8 V 691 – Steward Observatory, Kitt Peak-Spacewatch MPS 233384
2008 01 11.35009 09 05 01.60 +13 52 53.1 20.1 V 691 – Steward Observatory, Kitt Peak-Spacewatch MPS 233384
2008 01 11.36516 09 05 00.80 +13 52 52.0 19.9 V 691 – Steward Observatory, Kitt Peak-Spacewatch MPS 233384
2008 01 11.38024 09 05 00.03 +13 52 52.2 19.5 V 691 – Steward Observatory, Kitt Peak-Spacewatch MPS 233384
2008 01 12.38351 09 04 08.21 +13 51 54.2   691 – Steward Observatory, Kitt Peak-Spacewatch MPS 234235
2008 01 12.40116 09 04 07.27 +13 51 54.0   691 – Steward Observatory, Kitt Peak-Spacewatch MPS 234235
2008 01 12.41882 09 04 06.32 +13 51 52.4   691 – Steward Observatory, Kitt Peak-Spacewatch MPS 234235
2008 02 02.24929 08 43 16.75 +13 43 45.2 19.5 V G96 – Mt. Lemmon Survey MPS 237323
2008 02 02.25494 08 43 16.39 +13 43 45.2 19.5 V G96 – Mt. Lemmon Survey MPS 237323
2008 02 02.26063 08 43 15.99 +13 43 45.3 19.4 V G96 – Mt. Lemmon Survey MPS 237323
2008 02 02.26649 08 43 15.63 +13 43 45.1 19.4 V G96 – Mt. Lemmon Survey MPS 237323
2008 02 03.30056 08 42 10.25 +13 43 43.6 19.7   704 – Lincoln Laboratory ETS, New Mexico MPS 237323
2008 02 03.31303 08 42 09.45 +13 43 44.7 20.1   704 – Lincoln Laboratory ETS, New Mexico MPS 237323
2008 02 03.32563 08 42 08.59 +13 43 44.2 20.2   704 – Lincoln Laboratory ETS, New Mexico MPS 237323
2008 02 07.29041 08 38 01.06 +13 43 43.1 19.7 V G96 – Mt. Lemmon Survey MPS 237323
2008 02 07.29740 08 38 00.63 +13 43 43.1 19.7 V G96 – Mt. Lemmon Survey MPS 237323
2008 02 07.30441 08 38 00.20 +13 43 43.1 19.6 V G96 – Mt. Lemmon Survey MPS 237323
2008 02 07.31145 08 37 59.73 +13 43 43.1 19.6 V G96 – Mt. Lemmon Survey MPS 237323
2008 02 10.26943 08 35 00.07 +13 43 44.3 19.8   704 – Lincoln Laboratory ETS, New Mexico MPS 239130
2008 02 10.28175 08 34 59.40 +13 43 45.2 19.8   704 – Lincoln Laboratory ETS, New Mexico MPS 239130
2008 02 10.29393 08 34 58.70 +13 43 44.5 20.3   704 – Lincoln Laboratory ETS, New Mexico MPS 239130
2008 02 10.30622 08 34 57.89 +13 43 45.8 19.9   704 – Lincoln Laboratory ETS, New Mexico MPS 239130
2008 02 10.31855 08 34 57.15 +13 43 45.7 19.7   704 – Lincoln Laboratory ETS, New Mexico MPS 239130
2008 02 14.19941 08 31 11.67 +13 43 46.5 19.9 V 703 – Catalina Sky Survey MPS 239130
2008 02 14.20597 08 31 11.35 +13 43 46.9 19.6 V 703 – Catalina Sky Survey MPS 239130
2008 02 14.21255 08 31 10.92 +13 43 47.2 20.3 V 703 – Catalina Sky Survey MPS 239130
2008 02 14.21912 08 31 10.48 +13 43 46.2 20.3 V 703 – Catalina Sky Survey MPS 239130
2010 10 09.27312 00 40 43.24 +25 42 55.9 19.9 V 703 – Catalina Sky Survey MPS 353377
2010 10 09.27998 00 40 42.85 +25 42 53.6 19.9 V 703 – Catalina Sky Survey MPS 353377
2010 10 09.28689 00 40 42.42 +25 42 51.5 20.6 V 703 – Catalina Sky Survey MPS 353377
2010 10 09.29381 00 40 41.98 +25 42 50.5 19.7 V 703 – Catalina Sky Survey MPS 353377
2010 11 04.21036 00 20 25.36 +22 49 52.2 19.7 V 703 – Catalina Sky Survey MPS 355004
